Location: La Bilong�re
(48.1297°N, 1.4584°W)
Time: 22:20:42
(UTC+00:00)

ERS-2 - Pass Details

Date: 03 March 2021
Orbit: 492 x 496 km, 98.6° (Epoch: 14 April)

Event Time Altitude Azimuth Distance (km) Brightness Sun altitude
Rises 18:22:49 0° 24° (NNE) 2,594 5.5 -5.7°
Reaches altitude 10° 18:25:06 10° 36° (NE) 1,706 4.5 -6.1°
Maximum altitude 18:28:20 29° 98° (E) 942 3.0 -6.6°
Drops below altitude 10° 18:31:33 10° 159° (SSE) 1,694 4.6 -7.2°
Sets 18:33:48 0° 171° (S) 2,571 5.7 -7.5°
